sat.trackr.live / text

‹ back to catalog

STARLINK-3783

NORAD 52282 · 2022-041X

PAYLOAD ACTIVE UNKNOWN

§ Identity

Operator
Country
US
Launch date
2022-04-21
Launch site
AFETR
Launch vehicle
Mass (kg)
RCS (m²)

Purposes: comms

External: N2YO · Heavens-Above · Gunter

§ Orbital elements

Epoch: 2026-05-25T03:46:54.264000Z

Period
95.44 min
Inclination
53.2132°
Eccentricity
0.0001318
Mean motion
15.08836983 rev/d
Perigee alt
538.8 km
Apogee alt
540.7 km
Semi-major
6,917.9 km
B*
1.2448e-5
RAAN
115.8400°
Arg perigee
73.9894°
Mean anomaly
286.1243°
Rev number
22,604

§ Raw data

STARLINK-37831 52282U 22041X   26145.15757250 -.00000090  00000+0  12448-4 0  99902 52282  53.2132 115.8400 0001318  73.9894 286.1243 15.08836983226040

JSON: /api/v1/satellites/52282 · /tle

For live sub-satellite position, see the globe view (requires WebGL).

§ Visibility from observer

Set your observer location to see the next 7 days of passes ≥ 10°. The values pass through the URL so the page stays shareable.

No JS? Fill the form by hand. The geolocation button needs JavaScript.